Tracking 19219 objects as of 19-Jul-2018
HD Live streaming from Space Station
objects crossing your sky now

FENGYUN 1C DEB

Track FENGYUN 1C DEB now!
10-day predictions


NORAD ID: 29763
Int'l Code: 1999-025BD
Perigee: 786.4 km
Apogee: 974.3 km
Inclination: 98.8 °
Period: 102.4 minutes
Semi major axis: 7251 km
RCS: 0.048 m2 (small)
Launch date: May 10, 1999
Source: People's Republic of China (PRC)
Launch site: Taiyaun Space Center, China (TSC)

Note: This is SATELLITE DEBRIS
aabbcc
Your satellite tracking list
Your tracking list is empty




NASA's NSSDC Master Catalog

Two Line Element Set (TLE):
1 29763U 99025BD  18199.67462341 -.00000127 +00000-0 -47161-4 0  9998
2 29763 098.8066 238.9536 0129542 239.1257 239.6883 14.05972461590387
Source of the keplerian elements: AFSPC